Retour au catalogue

STARLINK-34208

ActifCommunicationsVLEO
NORAD 64740·PAYLOAD·🇺🇸 United States

Lancé Jul 2, 2025 depuis Cape Canaveral Space Force Station

Loading…

Prochains Passages (prochaines 24 heures)

TLE

FraisSource: CelesTrak SupGP

Époque: Sep 15, 2026, 02:31 UTC

1 64740C 25144S   26258.10534722  .00038145  00000+0  11271-2 0  2586
2 64740  53.1597  14.6778 0001213  94.4332 296.5589 15.34368091    13

Suivez STARLINK-34208 en temps réel avec AllMySat

Download on the App Store